Weather History for KFLL - November, 2014

Change the Weather History Date:

Sunday, November 9, 2014

  Actual Average Record
Temperature  
Mean Temperature 72 °F 76 °F  
Max Temperature 75 °F 82 °F 91 °F (1958)
Min Temperature 68 °F 71 °F 45 °F (1923)
Degree Days  
Heating Degree Days 0 0  
Month to date heating degree days 2 0  
Since 1 July heating degree days 2 0  
Cooling Degree Days 7 11  
Month to date cooling degree days 75 110  
Year to date cooling degree days 4422 4304  
Growing Degree Days 20 (Base 50)    
Moisture  
Dew Point 67 °F    
Average Humidity 83    
Maximum Humidity 93    
Minimum Humidity 73    
Precipitation  
Precipitation 0.47 in 0.12 in 1.04 in (1994)
Month to date precipitation 0.53 1.28  
Year to date precipitation 56.97 57.76  
Snow  
Snow 0.00 in - - ()
Month to date snowfall 0.0  
Since 1 July snowfall 0.0  
Since 1 September snowfall 0.0  
Snow Depth 0.00 in    
Sea Level Pressure  
Sea Level Pressure 29.85 in    
Wind  
Wind Speed 5 mph (NNW)    
Max Wind Speed 12 mph    
Max Gust Speed 15 mph    
Visibility 8 miles    
Events Rain , Thunderstorm    
T = Trace of Precipitation, MM = Missing Value Source: NWS Daily Summary

Daily Weather History Graph

Daily Weather History Graph

Search for Another Location

Airport or City:

Trip Planner

Search our weather history database for the weather conditions in past years. The results will help you decide how hot, cold, wet, or windy it might be!

Date:

Astronomy

Nov. 09, 2014 Rise Set
Actual Time 6:34 AM EST 5:33 PM EST
Civil Twilight 6:10 AM EST 5:57 PM EST
Nautical Twilight 5:42 AM EST 6:25 PM EST
Astronomical Twilight 5:15 AM EST 6:52 PM EST
Moon 8:09 PM EST (11/9) 9:01 AM EST (11/9)
Length of Visible Light 11h 47m
Length of Day
10h 59m
Waning Gibbous, 91% of the Moon is Illuminated
Nov 9
Waning Gibbous
Nov 14
Last Quarter
Nov 22
New
Nov 29
First Quarter
Dec 6
Full

Hourly Weather History & Observations

Time (EST) Temp. Dew Point Humidity Pressure Visibility Wind Dir Wind Speed Gust Speed Precip Events Conditions
12:53 AM 73.0 °F 64.0 °F 73% 29.85 in 10.0 mi SW 3.5 mph - N/A   Partly Cloudy
1:53 AM 71.1 °F 64.9 °F 81% 29.84 in 10.0 mi Calm Calm - N/A   Scattered Clouds
2:53 AM 70.0 °F 66.0 °F 87% 29.83 in 10.0 mi NNE 3.5 mph - N/A   Scattered Clouds
3:53 AM 70.0 °F 66.0 °F 87% 29.83 in 10.0 mi Calm Calm - N/A   Partly Cloudy
4:53 AM 70.0 °F 66.9 °F 90% 29.83 in 10.0 mi Calm Calm - N/A   Partly Cloudy
5:53 AM 71.1 °F 66.9 °F 87% 29.85 in 10.0 mi NW 3.5 mph - N/A   Overcast
6:53 AM 71.1 °F 68.0 °F 90% 29.85 in 10.0 mi Calm Calm - N/A   Overcast
7:53 AM 73.0 °F 69.1 °F 87% 29.86 in 10.0 mi North 3.5 mph - N/A   Overcast
8:53 AM 73.0 °F 70.0 °F 90% 29.88 in 5.0 mi NW 4.6 mph - 0.04 in Rain Light Rain
9:53 AM 72.0 °F 70.0 °F 93% 29.89 in 9.0 mi NW 3.5 mph - 0.12 in Rain Light Rain
10:53 AM 73.0 °F 70.0 °F 90% 29.86 in 10.0 mi NNE 4.6 mph - 0.01 in   Overcast
11:34 AM 73.0 °F 70.0 °F 90% 29.86 in 2.5 mi West 8.1 mph - 0.05 in Rain Light Rain
11:39 AM 73.0 °F 70.0 °F 90% 29.86 in 1.0 mi Variable 3.5 mph - 0.09 in Rain Heavy Rain
11:44 AM 73.0 °F 70.0 °F 90% 29.87 in 2.5 mi Variable 3.5 mph - 0.10 in Rain Light Rain
11:53 AM 73.0 °F 70.0 °F 90% 29.86 in 5.0 mi NNE 5.8 mph - 0.10 in Rain Light Rain
12:09 PM 73.0 °F 70.0 °F 90% 29.87 in 8.0 mi WNW 5.8 mph - 0.02 in Rain Light Rain
12:53 PM 73.0 °F 70.0 °F 90% 29.84 in 8.0 mi NNW 5.8 mph - 0.02 in   Overcast
1:22 PM 71.1 °F 69.1 °F 93% 29.84 in 2.0 mi North 5.8 mph - 0.07 in Rain Rain
1:38 PM 71.1 °F 69.1 °F 93% 29.82 in 5.0 mi North 6.9 mph - 0.10 in Rain Rain
1:53 PM 73.0 °F 70.0 °F 90% 29.82 in 9.0 mi North 6.9 mph - 0.10 in   Overcast
2:53 PM 73.0 °F 69.1 °F 87% 29.83 in 10.0 mi NW 6.9 mph - N/A   Overcast
3:11 PM 72.0 °F 69.1 °F 91% 29.83 in 9.0 mi NNW 6.9 mph - N/A   Overcast
3:53 PM 70.0 °F 66.9 °F 90% 29.83 in 6.0 mi NNW 11.5 mph - 0.00 in Rain Light Rain
4:53 PM 68.0 °F 66.0 °F 93% 29.84 in 7.0 mi NW 6.9 mph - 0.04 in Rain Light Rain
5:19 PM 68.0 °F 66.0 °F 93% 29.84 in 9.0 mi NW 8.1 mph - 0.00 in   Overcast
5:51 PM 68.0 °F 64.4 °F 88% 29.85 in 8.0 mi NNW 9.2 mph - 0.00 in Rain Light Rain
5:53 PM 68.0 °F 64.9 °F 90% 29.85 in 8.0 mi NNW 8.1 mph - 0.00 in Rain Light Rain
6:15 PM 68.0 °F 64.9 °F 90% 29.85 in 9.0 mi NW 8.1 mph - 0.00 in Rain , Thunderstorm Light Thunderstorms and Rain
6:36 PM 68.0 °F 64.9 °F 90% 29.87 in 8.0 mi NW 4.6 mph - 0.02 in Rain Light Rain
6:53 PM 68.0 °F 64.9 °F 90% 29.86 in 8.0 mi North 3.5 mph - 0.04 in Rain Light Rain
7:53 PM 69.1 °F 64.9 °F 87% 29.87 in 10.0 mi NNW 4.6 mph - 0.00 in   Overcast
8:53 PM 68.0 °F 64.9 °F 90% 29.88 in 10.0 mi NNW 3.5 mph - N/A   Overcast
9:53 PM 69.1 °F 66.0 °F 90% 29.90 in 10.0 mi NW 5.8 mph - N/A   Overcast
10:53 PM 68.0 °F 64.9 °F 90% 29.88 in 9.0 mi North 5.8 mph - N/A   Mostly Cloudy
11:53 PM 68.0 °F 64.9 °F 90% 29.88 in 10.0 mi NNW 5.8 mph - N/A   Overcast